Location: Unspecified
(35.7250°N, 0.0000°E)
Time: 19:20:13
(UTC+00:00)

Tiros 1 - Pass Details

Date: 29 June 2019
Orbit: 630 x 664 km, 48.4° (Epoch: 18 July)

Event Time Altitude Azimuth Distance (km) Brightness Sun altitude
Rises 04:09:06 0° 294° (WNW) 2,924 10.2 -7.3°
Reaches altitude 10° 04:11:50 10° 279° (W) 2,008 9.3 -6.8°
Maximum altitude 04:15:23 22° 228° (SW) 1,372 8.2 -6.2°
Drops below altitude 10° 04:18:55 10° 178° (S) 1,995 9.4 -5.6°
Sets 04:21:38 0° 163° (SSE) 2,898 10.3 -5.2°
